Regional Weather Roundup
Issued by NWS Green Bay, WI

Home | Current Version | Previous Version | Text Only | Print | Product List | Glossary On
Versions: 1 2 3 4 5 6 7 8 9 10 11 12 13 14 15 16 17 18 19 20 21 22 23 24 25 26 27 28 29 30 31 32 33 34 35 36 37 38 39 40 41 42 43 44 45 46 47 48 49 50
000
ASUS43 KGRB 191711
RWRGRB

NORTH-CENTRAL AND NORTHEAST WISCONSIN REGIONAL WEATHER ROUNDUP
NATIONAL WEATHER SERVICE GREEN BAY WI
1100 AM CST FRI JAN 19 2018

WIZ005-009-010>012-018-019-191800-
NORTH CENTRAL WISCONSIN

CITY           SKY/WX    TMP DP  RH WIND       PRES   REMARKS
IRONWOOD       PTSUNNY   39  25  57 SW13      29.49F
MANITOWISH WTR FAIR      31  26  80 SW8       29.55R
ARBOR VITAE    FAIR      32  28  84 S6        29.56F
EAGLE RIVER    FAIR      29  24  80 SW7       29.55F
LAND O LAKES   FAIR      31  26  81 SW7       29.56F
RHINELANDER    FAIR      30  23  75 SW13      29.58S
PHILLIPS       FAIR      30  24  77 SW9       29.57S
ANTIGO         FAIR      28  23  79 SW6       29.60F
TOMAHAWK       FAIR      29  22  76 S3        29.60S
MERRILL        FAIR      29  23  76 SW6       29.62F
$$

WIZ013-073-191800-
NORTHEAST WISCONSIN

CITY           SKY/WX    TMP DP  RH WIND       PRES   REMARKS
IRON MOUNTAIN  FAIR      29  23  78 S7        29.56F
MARINETTE      FAIR      31  23  72 SW10      29.65F
OCONTO         FAIR      32  22  67 SW10G18   29.66F
$$

WIZ017-030-035>037-045-191800-
CENTRAL WISCONSIN

CITY           SKY/WX    TMP DP  RH WIND       PRES   REMARKS
MEDFORD        FAIR      29  23  78 S12       29.61R
WAUSAU         FAIR      29  23  78 S7        29.61F
MOSINEE        CLOUDY    30  25  80 S10       29.64F
MARSHFIELD     FAIR      31  23  72 SW12      29.63F
WISC RAPIDS    FAIR      31  21  66 SW10      29.67F
STEVENS POINT  FAIR      30  22  72 S9        29.66F
WAUPACA        FAIR      35  24  63 SW10      29.68F
SHAWANO        FAIR      33  23  68 SW10G17   29.66F
CLINTONVILLE   FAIR      32  23  69 SW9       29.66F
WAUTOMA        FAIR      34  23  64 SW12      29.70F
$$

WIZ038-039-048-051-191800-
FOX VALLEY

CITY           SKY/WX    TMP DP  RH WIND       PRES   REMARKS
NWS GREEN BAY  FAIR      30  22  72 SW14      29.68F
APPLETON       PTSUNNY   30  21  69 SW15      29.67F
OSHKOSH        FAIR      31  23  72 SW16G22   29.71F
FOND DU LAC    FAIR      32  22  66 SW14G23   29.72F
$$

WIZ022-050-052-191800-
EAST CENTRAL WISCONSIN

CITY           SKY/WX    TMP DP  RH WIND       PRES   REMARKS
EPHRAIM        FAIR      33  22  65 SW12G18   29.63F
WASHINGTON ISL NOT AVBL
STURGEON BAY   FAIR      33  23  66 S17       29.66F
MANITOWOC      FAIR      32  24  72 S6        29.73S
SHEBOYGAN      FAIR      32  24  72 SW14      29.73F
$$

LMZ563-521-522-541>543-191800-
LAKESHORE

STATION/POSITION TIME  TEMP    WIND        PRES    VSBY  WAVE
                       AIR SEA DIR/SP/G                  HT/PER
                 (UTC) (F)     (DEG/KT/KT) (MB)    (MI)  (FT/S)
SHEBOYGAN LKSHOR 1700   33     210/ 13/ 15 1007.5F
KEWAUNEE LKSHORE 1642   29     190/  8/ 10 1005.8R
NORTHPORT PIER   1643   34     200/ 13/ 26 1004.4F
MENOMINEE LKSHOR 1636   29     190/ 10/ 14 1004.2F
$$




USA.gov is the U.S. government's official web portal to all federal, state and local government web resources and services.